OBJECT W, 62397

Orbit data source: Space-Track

You're viewing an Uncataloged Satellite

Recently launched and/or uncataloged satellites may have evolving metadata. Metadata may include but not limited to: Owner, Maufacturer, Bus, Motor, and Mission.

OBJECT W, 62397 is a satellite in LEO that was launched on Sat, 21 Dec 2024 UTC via an FALCON 9 launch vehicle from the Air Force Western Test Range (AFWTR). Unknown objects in Earth's orbit typically refer to objects detected orbiting the Earth but have not yet been identified or cataloged. These objects could be anything from previously untracked satellites, spent rocket stages, debris from satellite collisions, or even natural meteoroids temporarily captured by Earth's gravity.

Not visible in the next 10 days
Identifier
62397, 2024-247W
Orbit
LEO
Country
Flag of TBDTBD
Related business
None
Manufacturer
Unknown
Mission
Operational Commercial Communications
Bus & Motor
Unknown
Mass
Unknown
Launch date (UTC)
2024-12-21 (1 year ago)
Launch vehicle
FALCON 9
Launch site
Air Force Western Test Range (AFWTR)
Object type
Unknown
Shape & HBR
Box, 0.0 m
Radar Cross Section
0.004 m², Small (<0.1 m²)

Expand to show TLE details & history
Last TLE update: 4 days ago

TLE from 4 days ago
0 OBJECT W
1 62397U 24247W   26090.57033655  .06325194  10241-4  18117-2 0  9999
2 62397  44.9714 288.8560 0014300 278.7854  81.1446 16.26281116 71897
Epoch: 2026-03-31T13:41Z
TLE epoch observation values (Epoch: 2026-03-31T13:41:17.077Z)
Latitude
-0.00009°
Longitude
-105.41087°
Altitude
201.113 km
Speed
7.788 km/s
True Right ascension
19h 15m 25s
True Declination
0° 00' 00"
Sunlit
Object was in daylight at epoch
Visualization orbit readout
Latitude
Unknown
Longitude
Unknown
Altitude
Unknown
Speed
Unknown
Apparent Right ascension
Unknown
Apparent Declination
Unknown
Sunlit
N/A
Visualization observer readout
Local Sidereal Time
20:14:39
Azimuth
Unknown
Elevation
Unknown
Doppler factor
Unknown
Orbital elements
Apogee altitude
213.648 km
Perigee altitude
194.823 km
Semi-major axis
6,582.372 km
Eccentricity
0.00143
Inclination
44.9714°
RAAN
288.856°
Arg. of periapsis
278.7854°
True anomaly
81.30656°
Mean anomaly
81.1446°
Eccentric anomaly
81.22557°
Mean motion
4.06415 °/min
Orbital period
88.58 mins
BSTAR
0.0018117
Loading maneuver chart data...
Computing Atmospheric mass density...
Loading historical data...
Loading historical data...
Loading historical data...
Loading historical data...
Loading historical data...
Loading historical data...
Loading historical data...

Documentation

Showing up to 5 results
|